GW5324 Weather Reports


time (UTC)temp
C
wind
direction
speed
KPH
gust
KPH
rain 1hr
cm
rain 24hr
cm
rain mn
cm
humidity
%
barometer
mb
20260505211530 -17 0.0 0.0 0.00 0.00 0.00 1016.5
20260505210002 17 269 3.2 6.4 0.00 0.00 0.00 67 1016.6
20260505204533 -17 0.0 0.0 0.00 0.00 0.00 1016.8
20260505203031 17 317 1.6 4.8 0.00 0.00 0.00 67 1016.8
20260505201531 -17 0.0 0.0 0.00 0.00 0.00 1017.0
20260505200037 16 1.6 4.8 0.00 0.00 0.00 70 1017.0
20260505194509 16 66 4.8 0.0 0.00 0.00 0.00 71 1017.1
20260505193030 15 3.2 4.8 0.00 0.00 0.00 73 1017.0
20260505191512 15 9 1.6 6.4 0.00 0.00 0.00 73 1017.2
20260505190034 15 1.6 3.2 0.00 0.00 0.00 1017.1
20260505184530 -17 0.0 0.0 0.00 0.00 0.00 1017.1
20260505183032 -17 0.0 0.0 0.00 0.00 0.00 1017.1
20260505181529 -17 0.0 0.0 0.00 0.00 0.00 1017.1
20260505180027 15 252 3.2 9.7 0.00 0.00 0.00 73 1017.1
20260505174539 -17 0.0 0.0 0.00 0.00 0.00 1016.9
20260505173030 -17 0.0 0.0 0.00 0.00 0.00 1016.8
20260505171529 -17 0.0 0.0 0.00 0.00 0.00 1016.8
20260505170030 -17 0.0 0.0 0.00 0.00 0.00 1016.7
20260505164528 13 0.0 0.0 0.00 0.00 0.00 1016.6
20260505163021 13 232 1.6 6.4 0.00 0.00 0.00 77 1016.7
20260505161533 -17 0.0 0.0 0.00 0.00 0.00 77 1016.5
20260505153029 -17 0.0 0.0 0.00 0.00 0.00 1016.5
20260505151529 13 219 4.8 11.3 0.00 0.00 0.00 81 1016.4
20260505124535 12 199 6.4 9.7 0.00 0.00 0.00 80 1015.4
20260505123030 12 190 0.0 3.2 0.00 0.00 0.00 80 1015.4
20260505121531 12 190 3.2 6.4 0.00 0.00 0.00 80 1015.4
20260505120030 12 179 4.8 6.4 0.00 0.00 0.00 79 1015.3
20260505114529 12 192 3.2 6.4 0.00 0.00 0.00 79 1015.3
20260505113026 13 234 3.2 6.4 0.00 0.00 0.00 79 1015.1
20260505111522 13 304 1.6 3.2 0.00 0.00 0.00 79 1015.2
20260505101512 12 194 4.8 8.0 0.00 0.00 0.00 80 1014.7
20260505100004 12 329 0.0 3.2 0.00 0.00 0.00 82 1014.7
20260505094504 12 329 0.0 3.2 0.00 0.00 0.00 82 1014.6
20260505093006 13 330 0.0 3.2 0.00 0.00 0.00 81 1014.6
20260505091528 13 329 0.0 3.2 0.00 0.00 0.00 81 1014.6
20260505090036 13 329 0.0 3.2 0.00 0.00 0.00 81 1014.3
20260505084505 13 330 0.0 3.2 0.00 0.00 0.00 81 1014.2
20260505083013 13 329 3.2 6.4 0.00 0.00 0.00 80 1014.3
20260505081509 13 310 4.8 6.4 0.00 0.00 0.00 80 1014.1
20260505080016 13 315 4.8 8.0 0.00 0.00 0.00 79 1014.1
20260505074529 13 316 3.2 9.7 0.00 0.00 0.00 78 1014.1
20260505073009 14 340 4.8 6.4 0.00 0.00 0.00 77 1013.6
20260505071544 15 309 0.0 8.0 0.00 0.00 0.00 75 1013.4
20260505070016 15 178 3.2 8.0 0.00 0.00 0.00 74 1013.4
20260505064524 15 315 1.6 3.2 0.00 0.00 0.00 73 1013.1
20260505063028 16 315 1.6 3.2 0.00 0.00 0.00 72 1013.0
20260505061510 16 321 1.6 8.0 0.00 0.00 0.00 70 1012.7
20260505060012 16 315 3.2 4.8 0.00 0.00 0.00 69 1012.5
20260505054517 17 320 6.4 8.0 0.00 0.00 0.00 67 1012.3
20260505053029 17 281 1.6 6.4 0.00 0.00 0.00 66 1012.2
20260505051507 18 298 1.6 6.4 0.00 0.00 0.00 66 1012.2
20260505041521 20 319 4.8 11.3 0.00 0.00 0.00 64 1011.3
20260505040007 20 271 3.2 14.5 0.00 0.00 0.00 66 1011.0
20260505034532 20 180 6.4 9.7 0.00 0.00 0.00 65 1010.6
20260505033033 21 233 3.2 9.7 0.00 0.00 0.00 65 1010.6
20260505031524 21 194 6.4 16.1 0.00 0.00 0.00 63 1010.4
20260505030027 21 190 4.8 11.3 0.00 0.00 0.00 62 1010.2
20260505024528 21 202 9.7 17.7 0.00 0.00 0.00 60 1010.0
20260505023019 22 189 9.7 14.5 0.00 0.00 0.00 59 1010.1
20260505021528 22 211 8.0 12.9 0.00 0.00 0.00 58 1010.0
20260505020004 22 206 8.0 17.7 0.00 0.00 0.00 57 1010.1
20260505014508 22 165 9.7 16.1 0.00 0.00 0.00 57 1009.8
20260505013030 23 186 6.4 11.3 0.00 0.00 0.00 56 1010.1
20260505011520 23 226 9.7 16.1 0.00 0.00 0.00 54 1010.3
20260505010004 23 206 8.0 17.7 0.00 0.00 0.00 53 1010.4
20260505004509 23 178 8.0 22.5 0.00 0.00 0.00 53 1010.4
20260505003012 23 161 6.4 17.7 0.00 0.00 0.00 53 1010.5
20260505001530 23 240 8.0 17.7 0.00 0.00 0.00 52 1010.6
20260505000034 23 290 8.0 17.7 0.00 0.00 0.00 52 1010.7
20260504234531 23 188 3.2 17.7 0.00 0.00 0.00 51 1010.8
20260504233028 23 216 6.4 12.9 0.00 0.00 0.00 51 1010.7
20260504231526 23 155 8.0 14.5 0.00 0.00 0.00 52 1011.0
20260504230028 22 217 9.7 14.5 0.00 0.00 0.00 52 1011.1
20260504224528 22 220 4.8 16.1 0.00 0.00 0.00 53 1011.4
20260504223025 22 188 3.2 16.1 0.00 0.00 0.00 54 1011.5
20260504221530 22 175 9.7 14.5 0.00 0.00 0.00 55 1011.5
20260504220029 21 225 8.0 22.5 0.00 0.00 0.00 56 1011.8
20260504214521 22 165 9.7 16.1 0.00 0.00 0.00 55 1012.0
20260504213034 21 152 6.4 14.5 0.00 0.00 0.00 55 1012.3